Location: Eenumerhoogte
(53.3420°N, 6.7843°E)
Time: 12:04:45
(UTC+00:00)

CZ-2C R/B - Pass Details

Date: 15 May 2026
Orbit: 334 x 346 km, 97.7° (Epoch: 4 June)

Event Time Altitude Azimuth Distance (km) Brightness Sun altitude
Exits shadow 21:53:08 14° 224° (SW) 1,062 4.1 -14.7°
Maximum altitude 21:54:33 20° 264° (W) 849 4.0 -14.8°
Drops below altitude 10° 21:56:41 10° 316° (NW) 1,286 5.8 -14.9°
Sets 21:58:54 0° 334° (NNW) 2,132 7.8 -15.0°
